Location: Newark
(0.5300°S, 127.4800°E)
Time: 05:11:03
(UTC+00:00)

Explorer 7 - All Passes

Search period start: 20 September 2019 00:00
Search period end: 30 September 2019 00:00
Orbit: 485 x 680 km, 50.3° (Epoch: 19 September)

Date Brightness Start Highest point End Pass type
(mag) Time Alt. Az. Time Alt. Az. Time Alt. Az.
20 Sep - 11:03:00 10° SW 11:06:55 87° NW 11:11:01 10° NE visible
20 Sep - 23:05:37 10° NW 23:10:19 65° SW 23:14:48 10° SSE daylight
21 Sep - 09:30:46 10° SE 09:31:38 11° SE 09:32:30 10° ESE daylight
21 Sep - 11:08:17 10° WSW 11:11:54 36° NW 11:15:42 10° NNE visible
21 Sep - 21:31:22 10° N 21:34:48 19° NE 21:38:09 10° E daylight
21 Sep - 23:11:05 10° WNW 23:15:16 31° SW 23:19:18 10° S daylight
22 Sep - 09:33:33 10° S 09:36:37 23° SE 09:39:46 10° ENE daylight
22 Sep - 11:14:19 10° W 11:16:56 17° NW 11:19:39 10° N visible
22 Sep - 21:35:23 10° NNW 21:39:51 37° NE 21:44:09 10° ESE daylight
22 Sep - 23:17:22 10° W 23:20:15 16° SW 23:23:04 10° SSW daylight
23 Sep - 09:37:51 10° SSW 09:41:34 51° SE 09:45:27 10° NE visible
23 Sep - 21:40:01 10° NNW 21:44:50 78° NE 21:49:29 10° SE daylight
24 Sep - 09:42:45 10° SW 09:46:33 64° NW 09:50:29 10° NNE visible
24 Sep - 20:07:11 10° NNE 20:09:16 13° NE 20:11:20 10° ENE visible
24 Sep - 21:45:07 10° NW 21:49:48 51° SW 21:54:19 10° SSE daylight
25 Sep - 08:09:21 10° SSE 08:11:16 13° SE 08:13:11 10° E daylight
25 Sep - 09:48:15 10° WSW 09:51:32 27° NW 09:54:57 10° N visible
25 Sep - 20:10:23 10° N 20:14:19 24° NE 20:18:12 10° ESE visible
25 Sep - 21:50:47 10° WNW 21:54:46 26° SW 21:58:39 10° S daylight
26 Sep - 08:12:56 10° S 08:16:15 29° SE 08:19:37 10° ENE daylight
26 Sep - 09:54:48 10° W 09:56:35 13° NW 09:58:24 10° NNW visible
26 Sep - 20:14:37 10° NNW 20:19:20 48° NE 20:23:55 10° SE visible
26 Sep - 21:57:29 10° W 21:59:46 13° SW 22:02:01 10° SSW daylight
27 Sep - 08:17:28 10° SSW 08:21:12 70° SE 08:25:03 10° NE daylight
27 Sep - 20:19:25 10° NW 20:24:18 84° SW 20:29:04 10° SE visible
28 Sep - 08:22:33 10° SW 08:26:11 47° NW 08:29:54 10° NNE daylight
28 Sep - 18:45:48 10° NNE 18:48:46 16° NE 18:51:44 10° E visible
28 Sep - 20:24:40 10° WNW 20:29:16 41° SW 20:33:45 10° SSE visible
29 Sep - 06:48:24 10° S 06:50:54 17° SE 06:53:25 10° E daylight
29 Sep - 08:28:18 10° WSW 08:31:11 21° NW 08:34:07 10° N daylight
29 Sep - 18:49:29 10° N 18:53:48 30° NE 18:58:02 10° ESE visible
29 Sep - 20:30:34 10° WNW 20:34:15 21° SW 20:37:52 10° S visible
